Hourly Data Report for October 01, 2015

All times are specified in Local Standard Time (LST). Add 1 hour to adjust for Daylight Saving Time where and when it is observed.

KUGAARUK CLIMATE
NUNAVUT

68°32'15.060" N
89°47'47.020" W
15.80 m
2303094
71407
NBB

Download Data

Hourly Data (October 2015)
Hourly Data Report for October 1, 2015
Temp Definition
°C
Dew Point Temp Definition
°C
Rel Hum Definition
%
Wind Dir Definition
10's deg

Wind Spd Definition
km/h
Visibility Definition
km
Stn Press Definition
kPa
Hmdx Definition


Wind Chill Definition


Weather Definition


TIME
00:00 3.0 -0.3 79 21 54   99.95     LegendNANA
01:00 3.1 0.0 80 22 51   99.86     LegendNANA
02:00 3.3 0.3 81 22 56   99.79     LegendNANA
03:00 3.4 0.5 81 22 57   99.72     LegendNANA
04:00 3.9 0.9 81 22 50   99.73     LegendNANA
05:00 4.1 1.3 82 22 51   99.70     LegendNANA
06:00 4.6 1.7 82 22 48   99.72     LegendNANA
07:00 4.9 2.0 81 22 44   99.70     LegendNANA
08:00 4.7 2.1 83 22 49   99.72     LegendNANA
09:00 5.1 2.6 84 22 42   99.80     LegendNANA
10:00
11:00
12:00
13:00 2.4 0.3 86 26 39   100.37     LegendNANA
14:00 1.9 -1.1 81 27 51   100.58     LegendNANA
15:00 1.9 -1.7 77 26 41   100.74     LegendNANA
16:00 1.7 -2.2 75 27 48   100.88     LegendNANA
17:00 1.6 -2.6 73 26 50   101.02     LegendNANA
18:00 1.1 -2.4 78 27 46   101.16     LegendNANA
19:00 0.9 -4.3 68 28 59   101.35     LegendNANA
20:00 0.9 -3.6 72 28 49   101.46     LegendNANA
21:00 0.6 -3.7 73 27 44   101.68     LegendNANA
22:00 0.6 -4.1 71 28 46   101.86     LegendNANA
23:00 0.4 -3.9 73 29 39   102.07     LegendNANA

Notes on Data Quality.

Legend

  • E = Estimated
  • M = Missing
  • NA = Not Available
  • ‡ = Partner data that is not subject to review by the National Climate Archives
Date modified: